This demonstration page uses our WeatherBlox Daily Observations layout. Learn more.

Left ArrowRight Arrow

44.31136, -96.79839

Hourly Observations for June 17, 2019

Temp ( °F °C ) Dew Point ( °F °C ) Humidity (%) Winds ( mph kmh ) Pressure ( in mb ) Visibility ( mi km ) Precip ( " mm )
12:56 am 00:56 Mostly Cloudy 64 17.8 55 12.8 73 73 ENE 5 7 29.97 1015 10 16 0.00 0.00
1:56 am 01:56 Mostly Clear 63 17.2 55 12.8 76 76 E 6 9 29.97 1015 10 16 0.00 0.00
2:56 am 02:56 Mostly Cloudy 58 14.4 55 12.8 90 90 NNW 5 7 29.98 1015 10 16 0.00 0.00
3:56 am 03:56 Cloudy 59 15 55 12.8 87 87 Calm 29.99 1016 10 16 0.00 0.00
4:56 am 04:56 Cloudy with Light Rain 60 15.6 54 12.2 80 80 ENE 3 6 29.99 1016 10 16 0.00 0.03
5:56 am 05:56 Cloudy 59 15 54 12.2 83 83 VRB 3 6 30.00 1016 10 16 0.00 0.03
6:13 am 06:13 Cloudy with Heavy Rain 57 14 55 13 94 94 Calm 29.99 1015 2 3 0.08 2.03
6:25 am 06:25 Cloudy with Rain 57 14 55 13 94 94 NE 7 11 29.98 1015 3 5 0.16 4.06
6:56 am 06:56 Cloudy 58 14.4 55 12.8 90 90 NE 7 11 30.02 1017 10 16 0.18 4.57
7:56 am 07:56 Cloudy 58 14.4 55 12.8 90 90 N 9 15 30.03 1017 10 16 0.01 0.25
8:56 am 08:56 Cloudy 58 14.4 54 12.2 87 87 undefined N/A 30.05 1018 10 16 0.00 0.00
9:56 am 09:56 Cloudy with Light Rain 57 13.9 54 12.2 90 90 NNE 6 9 30.07 1018 10 16 0.00 0.03
10:56 am 10:56 Cloudy 59 15 54 12.2 83 83 NNE 6 9 30.07 1018 10 16 0.01 0.25
11:09 am 11:09 Cloudy with Haze 61 16 55 13 83 83 NNE 5 7 30.01 1016 6 10 0.00 0.00
11:56 am 11:56 Cloudy with Light Rain 61 16.1 54 12.2 78 78 NNE 7 11 30.07 1018 10 16 0.00 0.03
12:56 pm 12:56 Cloudy with Light Rain 59 15 55 12.8 87 87 NNE 9 15 30.08 1019 10 16 0.03 0.76
1:56 pm 13:56 Cloudy 62 16.7 55 12.8 78 78 NNE 9 15 30.07 1018 10 16 0.01 0.25
2:56 pm 14:56 Cloudy 62 16.7 56 13.3 80 80 N 5 7 30.06 1018 10 16 0.00 0.00
3:56 pm 15:56 Sunny 65 18.3 58 14.4 78 78 NNE 7 11 30.05 1018 10 16 0.01 0.25
4:56 pm 16:56 Sunny 67 19.4 59 15 76 76 VRB 3 6 30.04 1017 10 16 0.00 0.00
5:56 pm 17:56 Mostly Cloudy 67 19.4 58 14.4 73 73 N 5 7 30.04 1017 10 16 0.00 0.00
6:56 pm 18:56 Cloudy 67 19.4 56 13.3 68 68 N 6 9 30.05 1018 10 16 0.00 0.00
7:40 pm 19:40 Mostly Cloudy 66 19 55 13 68 68 NW 5 7 29.98 1015 10 16 0.00 0.00
7:56 pm 19:56 undefined 67 19.4 56 13.3 68 68 WNW 6 9 30.05 1018 10 16 0.00 0.00
8:56 pm 20:56 Sunny 64 17.8 56 13.3 75 75 NNW 6 9 30.04 1017 10 16 0.00 0.00
9:56 pm 21:56 Clear 62 16.7 55 12.8 78 78 Calm 30.06 1018 10 16 0.00 0.00
10:51 pm 22:51 Hazy 61 16 54 12 77 77 ENE 3 6 30.02 1017 1 1 0.00 0.00
10:56 pm 22:56 Clear 61 16.1 54 12.2 78 78 ENE 3 6 30.08 1019 9 14 0.00 0.00
11:56 pm 23:56 Clear 58 14.4 53 11.7 84 84 NNE 3 6 30.09 1019 10 16 0.00 0.00

Powered by AerisWeather